Location: Bernadets
(43.3537°N, 0.3167°E)
Time: 22:13:12
(UTC+00:00)

SWARM C - Pass Details

Date: 24 October 2021
Orbit: 424 x 429 km, 87.3° (Epoch: 06 December)

Event Time Altitude Azimuth Distance (km) Brightness Sun altitude
Rises 18:23:15 0° 174° (S) 2,385 8.2 -15.5°
Reaches altitude 10° 18:25:16 10° 172° (S) 1,525 7.2 -15.9°
Maximum altitude 18:28:32 66° 89° (E) 474 4.4 -16.5°
Drops below altitude 10° 18:31:51 10° 7° (N) 1,541 7.2 -17.1°
Sets 18:33:54 0° 5° (N) 2,414 8.3 -17.5°
